Location: Newark
(58.8333°N, 23.5833°E)
Time: 09:35:20
(UTC+00:00)

A-11 Canister half - All Passes

Search period start: 20 November 2019 00:00
Search period end: 30 November 2019 00:00
Orbit: 1527 x 1682 km, 47.3° (Epoch: 19 November)

Date Brightness Start Highest point End Pass type
(mag) Time Alt. Az. Time Alt. Az. Time Alt. Az.
20 Nov - 08:19:34 10° SSE 08:23:43 13° SE 08:27:49 10° ESE daylight
20 Nov - 10:17:56 10° SSW 10:26:11 31° SSE 10:34:14 10° E daylight
20 Nov - 12:20:31 10° WSW 12:29:33 42° S 12:38:19 10° ESE daylight
20 Nov - 14:24:28 10° W 14:33:02 36° SSW 14:41:22 10° SE visible
20 Nov - 16:29:38 10° W 16:35:47 19° SW 16:41:51 10° S visible
21 Nov - 07:58:29 10° SSE 08:02:12 13° SE 08:05:54 10° ESE daylight
21 Nov - 09:56:26 10° SSW 10:04:37 30° SSE 10:12:37 10° E daylight
21 Nov - 11:58:55 10° WSW 12:07:58 42° S 12:16:45 10° ESE daylight
21 Nov - 14:02:49 10° W 14:11:28 37° SSW 14:19:51 10° SE daylight
21 Nov - 16:07:54 10° W 16:14:17 20° SW 16:20:32 10° S visible
22 Nov - 07:37:29 10° SE 07:40:42 12° SE 07:43:54 10° ESE daylight
22 Nov - 09:34:56 10° SSW 09:43:03 29° SSE 09:51:00 10° E daylight
22 Nov - 11:37:19 10° WSW 11:46:23 42° S 11:55:11 10° ESE daylight
22 Nov - 13:41:11 10° W 13:49:54 38° SSW 13:58:22 10° SE daylight
22 Nov - 15:46:11 10° W 15:52:46 21° SW 15:59:13 10° S visible
23 Nov - 07:16:35 10° SE 07:19:11 11° SE 07:21:47 10° ESE daylight
23 Nov - 09:13:27 10° SSW 09:21:30 29° SSE 09:29:23 10° E daylight
23 Nov - 11:15:44 10° WSW 11:24:48 42° S 11:33:37 10° ESE daylight
23 Nov - 13:19:34 10° W 13:28:20 38° SSW 13:36:51 10° SE daylight
23 Nov - 15:24:28 10° W 15:31:14 22° SW 15:37:52 10° S visible
24 Nov - 06:55:59 10° SE 06:57:41 11° SE 06:59:23 10° ESE daylight
24 Nov - 08:51:58 10° SSW 08:59:56 28° SSE 09:07:45 10° E daylight
24 Nov - 10:54:08 10° WSW 11:03:12 42° S 11:12:02 10° ESE daylight
24 Nov - 12:57:55 10° W 13:06:45 39° SSW 13:15:20 10° SE daylight
24 Nov - 15:02:45 10° W 15:09:43 23° SW 15:16:31 10° S visible
25 Nov - 08:30:29 10° SSW 08:38:23 27° SSE 08:46:08 10° E daylight
25 Nov - 10:32:32 10° SW 10:41:38 41° S 10:50:27 10° ESE daylight
25 Nov - 12:36:17 10° WSW 12:45:11 39° SSW 12:53:48 10° SE daylight
25 Nov - 14:41:03 10° W 14:48:10 24° SW 14:55:09 10° S visible
26 Nov - 08:09:02 10° SSW 08:16:50 27° SE 08:24:29 10° E daylight
26 Nov - 10:10:57 10° SW 10:20:02 41° S 10:28:52 10° ESE daylight
26 Nov - 12:14:40 10° WSW 12:23:36 40° SSW 12:32:17 10° SE daylight
26 Nov - 14:19:22 10° W 14:26:38 24° SW 14:33:46 10° SSE visible
27 Nov - 07:47:35 10° SSW 07:55:16 26° SE 08:02:50 10° E daylight
27 Nov - 09:49:22 10° SW 09:58:27 41° SSE 10:07:18 10° ESE daylight
27 Nov - 11:53:01 10° WSW 12:02:01 40° SSW 12:10:45 10° SE daylight
27 Nov - 13:57:40 10° W 14:05:07 25° SW 14:12:22 10° SSE daylight
28 Nov - 07:26:07 10° SSW 07:33:43 25° SE 07:41:11 10° E daylight
28 Nov - 09:27:47 10° SW 09:36:51 40° SSE 09:45:42 10° ESE daylight
28 Nov - 11:31:24 10° WSW 11:40:26 41° SSW 11:49:13 10° SE daylight
28 Nov - 13:35:58 10° W 13:43:34 26° SW 13:50:58 10° SSE daylight
29 Nov - 07:04:42 10° S 07:12:10 24° SE 07:19:32 10° E daylight
29 Nov - 09:06:12 10° SW 09:15:16 40° SSE 09:24:07 10° ESE daylight
29 Nov - 11:09:46 10° WSW 11:18:51 41° S 11:27:41 10° SE daylight
29 Nov - 13:14:18 10° W 13:22:02 27° SW 13:29:34 10° SSE daylight
